Guthrie, OK

10:56 PM CST on November 19, 2017 (GMT -0600)
Guthrie Municipal

Weather History for KGOK - December, 2013

Change the Weather History Date:

Monday, December 23, 2013

  Actual Average Record
Temperature  
Mean Temperature 22 °F -  
Max Temperature 28 °F 48 °F 71 °F (1954)
Min Temperature 16 °F 25 °F -13 °F (1989)
Degree Days  
Heating Degree Days 43    
Moisture  
Dew Point 19 °F    
Average Humidity 84    
Maximum Humidity 89    
Minimum Humidity 81    
Precipitation  
Precipitation 0.00 in - - ()
Sea Level Pressure  
Sea Level Pressure 30.55 in    
Wind  
Wind Speed 3 mph (ENE)    
Max Wind Speed 9 mph    
Max Gust Speed -    
Visibility 6 miles    
Events      
Averages and records for this station are not official NWS values.
T = Trace of Precipitation, MM = Missing Value Source: NWS Daily Summary

Daily Weather History Graph

Daily Weather History Graph

Search for Another Location

Airport or City:

Trip Planner

Search our weather history database for the weather conditions in past years. The results will help you decide how hot, cold, wet, or windy it might be!

Date:

Astronomy

Dec. 23, 2013 Rise Set
Actual Time 7:37 AM CST 5:20 PM CST
Civil Twilight 7:08 AM CST 5:49 PM CST
Nautical Twilight 6:36 AM CST 6:21 PM CST
Astronomical Twilight 6:05 AM CST 6:52 PM CST
Moon 11:20 PM CST (12/23) 11:13 AM CST (12/23)
Length of Visible Light 10h 40m
Length of Day
9h 43m
Waning Gibbous, 68% of the Moon is Illuminated
Dec 23
Waning Gibbous
Dec 25
Last Quarter
Jan 1
New
Jan 7
First Quarter
Jan 15
Full

Hourly Weather History & Observations

Time (CST) Temp. Windchill Dew Point Humidity Pressure Visibility Wind Dir Wind Speed Gust Speed Precip Events Conditions
12:53 AM 18.0 °F - 14.0 °F 84% 30.42 in 6.0 mi Calm Calm - N/A   Clear
1:53 AM 18.0 °F - 14.0 °F 84% 30.43 in 6.0 mi Calm Calm - N/A   Clear
2:53 AM 18.0 °F 12.7 °F 12.9 °F 81% 30.42 in 8.0 mi ESE 3.5 mph - N/A   Clear
3:53 AM 19.0 °F - 16.0 °F 88% 30.43 in 7.0 mi Calm Calm - N/A   Clear
4:53 AM 16.0 °F - 12.0 °F 84% 30.47 in 7.0 mi Calm Calm - N/A   Clear
5:53 AM 17.1 °F 11.7 °F 12.9 °F 84% 30.47 in 7.0 mi East 3.5 mph - N/A   Clear
6:53 AM 19.0 °F 11.1 °F 15.1 °F 85% 30.49 in 6.0 mi East 5.8 mph - N/A   Clear
7:53 AM 19.0 °F - 15.1 °F 85% 30.54 in 5.0 mi Calm Calm - N/A   Clear
8:53 AM 21.9 °F - 19.0 °F 89% 30.56 in 4.0 mi Calm Calm - N/A   Clear
9:53 AM 25.0 °F 20.7 °F 21.9 °F 88% 30.58 in 4.0 mi ENE 3.5 mph - N/A   Clear
10:31 AM 26.6 °F 20.0 °F 23.0 °F 86% 30.53 in 5.0 mi ENE 5.8 mph - N/A   Overcast
10:48 AM 26.6 °F 19.1 °F 23.0 °F 86% 30.53 in 4.0 mi NE 6.9 mph - N/A   Overcast
10:53 AM 27.0 °F 19.5 °F 23.0 °F 85% 30.58 in 4.0 mi ENE 6.9 mph - N/A   Overcast
11:21 AM 26.6 °F 18.2 °F 23.0 °F 86% 30.53 in 5.0 mi East 8.1 mph - N/A   Overcast
11:53 AM 27.0 °F 19.5 °F 23.0 °F 85% 30.60 in 5.0 mi ENE 6.9 mph - N/A   Overcast
12:53 PM 27.0 °F 18.0 °F 21.9 °F 81% 30.58 in 6.0 mi ENE 9.2 mph - N/A   Haze
1:53 PM 28.0 °F 21.7 °F 23.0 °F 81% 30.58 in 6.0 mi NE 5.8 mph - N/A   Haze
2:53 PM 27.0 °F 20.5 °F 21.9 °F 81% 30.59 in 6.0 mi NE 5.8 mph - N/A   Haze
3:53 PM 26.1 °F 18.4 °F 21.0 °F 81% 30.60 in 5.0 mi NE 6.9 mph - N/A   Haze
4:53 PM 25.0 °F 17.1 °F 21.0 °F 85% 30.61 in 4.0 mi NE 6.9 mph - N/A   Overcast
5:53 PM 25.0 °F 19.3 °F 19.9 °F 81% 30.63 in 5.0 mi NE 4.6 mph - N/A   Haze
6:53 PM 24.1 °F 18.2 °F 19.0 °F 81% 30.63 in 6.0 mi East 4.6 mph - N/A   Haze
7:53 PM 24.1 °F - 19.0 °F 81% 30.64 in 6.0 mi Calm Calm - N/A   Haze
8:53 PM 23.0 °F - 19.0 °F 85% 30.64 in 5.0 mi Calm Calm - N/A   Overcast
9:53 PM 23.0 °F - 18.0 °F 81% 30.63 in 6.0 mi Calm Calm - N/A   Haze
10:53 PM 23.0 °F - 18.0 °F 81% 30.61 in 5.0 mi Calm Calm - N/A   Haze
11:53 PM 23.0 °F - 18.0 °F 81% 30.62 in 5.0 mi Calm Calm - N/A   Haze